Flag for U.S.A. Weather past 2 weeks in Brockton, Massachusetts, U.S.A.

Now
12 °F

Cold.


Feels Like: -1 °F
Forecast: 9 / 24 °F
Wind: 9 mph from North

Location: East Milton

Current Time: Mar 6, 2015 at 9:38:55 AM

Latest Report: Mar 6, 2015 at 8:54 AM


Visibility: N/A

Pressure: 30.50 "Hg

Humidity: 40%

Dew point: -8 °F

Location of BrocktonLocation

Historic Weather in Brockton — Graph

°F

Brockton temperature yesterday

Maximum temperature yesterday: 35 °F (at 12:54 AM)
Minimum temperature yesterday: 16 °F (at 11:54 PM)
Average temperature yesterday: 26 °F

Past Weeks' High & Low Weather Summary

 TemperatureHumidityPressure
High40 °F (Mar 4, 11:54 AM)100% (Feb 21, 9:54 PM)30.75 "Hg (Feb 21, 9:54 PM)
Low-5 °F (Feb 24, 3:54 AM)27% (Feb 28, 3:54 PM)29.54 "Hg (Feb 19, 1:54 PM)
Average20 °F62%30.15 "Hg
* Reported Feb 19 7:54 AM — Mar 6 7:54 AM, Brockton, Weather by CustomWeather, © 2015

Note: Actual official high and low records may vary slightly from our data, if they occured in-between our weather recording intervals... More about our weather records

Advertising

Brockton weather history for previous 24 hours

 ConditionsComfort  
Time TempWeatherWind HumidityBarometerVisibility
7:54 AM
Fri, Mar 6
8 °FFrigid.12 mph45%30.50 "HgN/A
6:54 AM5 °FFrigid.9 mph52%30.47 "HgN/A
5:54 AM6 °FFrigid.12 mphN/A30.45 "HgN/A
4:54 AM7 °FFrigid.13 mphN/A30.42 "HgN/A
3:54 AM8 °FFrigid.15 mphN/A30.40 "HgN/A
2:54 AM9 °FFrigid.21 mph45%30.37 "HgN/A
1:54 AM11 °FCold.14 mph44%30.37 "HgN/A
12:54 AM14 °FCold.14 mph44%30.33 "HgN/A
11:54 PM
Thu, Mar 5
16 °FCold.18 mph45%30.31 "HgN/A
10:54 PM17 °FCold.10 mph45%30.29 "HgN/A
9:54 PM18 °FCold.13 mph43%30.26 "HgN/A
8:54 PM19 °FCold.12 mph43%30.24 "HgN/A
7:54 PM20 °FCold.12 mph43%30.22 "HgN/A
6:54 PM21 °FCold.10 mph43%30.19 "HgN/A
5:54 PM21 °FCold.10 mph43%30.15 "HgN/A
4:54 PM22 °FCold.9 mph44%30.13 "HgN/A
3:54 PM23 °FCold.10 mph44%30.11 "HgN/A
2:54 PM24 °FCold.12 mph46%30.09 "HgN/A
1:54 PM26 °FChilly.12 mph38%30.07 "HgN/A
12:54 PM26 °FChilly.13 mph40%30.08 "HgN/A
11:54 AM27 °FChilly.8 mph49%30.05 "HgN/A
10:54 AM27 °FChilly.12 mph42%30.07 "HgN/A
9:54 AM28 °FChilly.14 mph49%30.04 "HgN/A
Weather by CustomWeather, © 2015

See weather overviewHow to use our weather pages